This is the latest recevied weather packets stored in our database for station/object WA4OPQ-3. If no packets are shown the sender has not sent any weather packets the latest 10 day(s).
| Time | Temp. | Humidity | Pressure | Rain* | Wind** | Luminosity | Snow |
|---|---|---|---|---|---|---|---|
| 1777600243 | 10.56° C | 93% | 1014.3 hPa | 0 mm | - | 0 W/m² | - |
| 1777599637 | 10.56° C | 92% | 1014.2 hPa | 0 mm | - | 0 W/m² | - |
| 1777599033 | 11.11° C | 92% | 1014 hPa | 0 mm | - | 0 W/m² | - |
| 1777598428 | 11.11° C | 91% | 1013.6 hPa | 0 mm | - | 0 W/m² | - |
| 1777597822 | 11.67° C | 90% | 1013.1 hPa | 0 mm | - | 0 W/m² | - |
| 1777597220 | 11.67° C | 88% | 1013.6 hPa | 0 mm | - | 0 W/m² | - |
| 1777596612 | 12.22° C | 85% | 1013.6 hPa | 0 mm | - | 0 W/m² | - |
| 1777596007 | 12.78° C | 84% | 1013.9 hPa | 0 mm | - | 0 W/m² | - |
| 1777595404 | 12.78° C | 81% | 1014 hPa | 0 mm | - | 0 W/m² | - |
| 1777594798 | 13.33° C | 81% | 1014.1 hPa | 0 mm | - | 4 W/m² | - |
| 1777594194 | 13.33° C | 79% | 1013.9 hPa | 0 mm | - | 10 W/m² | - |
| 1777593588 | 13.89° C | 77% | 1013.6 hPa | 0 mm | - | 14 W/m² | - |
| 1777592983 | 14.44° C | 75% | 1013.4 hPa | 0 mm | - | 21 W/m² | - |
| 1777592377 | 15° C | 73% | 1013.3 hPa | 0 mm | - | 32 W/m² | - |
| 1777591773 | 15° C | 70% | 1013.7 hPa | 0 mm | - | 38 W/m² | - |
| 1777591168 | 15.56° C | 68% | 1013.9 hPa | 0 mm | - | 67 W/m² | - |
| 1777590563 | 15.56° C | 64% | 1014.2 hPa | 0 mm | - | 75 W/m² | - |
| 1777589957 | 16.11° C | 62% | 1014 hPa | 0 mm | - | 79 W/m² | - |
| 1777589353 | 16.11° C | 59% | 1013.9 hPa | 0 mm | - | 91 W/m² | - |
| 1777588747 | 16.67° C | 47% | 1014.1 hPa | 0 mm | - | 95 W/m² | - |
| 1777588142 | 16.67° C | 49% | 1013.9 hPa | 0 mm | - | 116 W/m² | - |
| 1777587538 | 16.67° C | 53% | 1013.7 hPa | 0 mm | - | 122 W/m² | - |
| 1777586933 | 16.67° C | 48% | 1013.9 hPa | 0 mm | - | 115 W/m² | - |
| 1777586328 | 16.67° C | 50% | 1013.6 hPa | 0 mm | - | 130 W/m² | - |
| 1777585723 | 16.67° C | 47% | 1013.8 hPa | 0 mm | - | 121 W/m² | - |
* Rain latest hour (hover to see other rain measurements)
** Current wind speed in m/s (hover to see current wind gust speed)